Showing default

HULIANWANG DIGUI-15, 62975

Orbit data source: Space-Track

HULIANWANG DIGUI-15, 62975 is a payload satellite owned by Zhongguo Xingwang (CN) in LEO that was launched on Tue, 11 Feb 2025 UTC via a CHANG ZHENG 8A launch vehicle from the Wenchang Satellite Launch Center (WSC). Payload-class satellites include a variety of spacecraft equipped with specific instruments for various scientific and technological missions. These include communications satellites like Starlink; space stations such as the ISS; scientific satellites like the Hubble; Earth observation satellites from companies like Planet Labs, Umbra, and HawkEye 360; GPS; miniature CubeSats for education and research; and military/defense satellites.

Loading next visibility...
Identifier
62975, 2025-030E
Orbit
LEO
Country
Flag of CNCN / PRC
Related business
Manufacturer
CAST
Mission
Operational Civil Communications
Bus & Motor
XINGWANG C, Unknown motor
Mass
~700 kg wet, ~700 kg dry
Launch date (UTC)
2025-02-11 (1 year ago)
Launch vehicle
CHANG ZHENG 8A
Launch site
Wenchang Satellite Launch Center (WSC)
Object type
Payload
Rocket body
Debris
Shape & HBR
Box + 2 Pan, 2.1 m
Radar Cross Section
5.935 m², Large (>1 m²)

Expand to show TLE details & history
Last TLE update: 9 hours ago

TLE from 9 hours ago
0 HULIANWANG DIGUI-15
1 62975U 25030E   26038.23355085 -.00000075  00000-0  10470-3 0  9997
2 62975  50.0049 341.8489 0000398  98.8258 261.2659 13.29335679 48579
Epoch: 2026-02-07T05:36Z
TLE epoch observation values (Epoch: 2026-02-07T05:36:18.793Z)
Latitude
-0.00003°
Longitude
120.41056°
Altitude
1,149.822 km
Speed
7.279 km/s
True Right ascension
22h 47m 23s
True Declination
0° 00' 00"
Sunlit
Object was in daylight at epoch
Visualization orbit readout
Latitude
Unknown
Longitude
Unknown
Altitude
Unknown
Speed
Unknown
Apparent Right ascension
Unknown
Apparent Declination
Unknown
Sunlit
N/A
Visualization observer readout
Local Sidereal Time
16:22:55
Azimuth
Unknown
Elevation
Unknown
Doppler factor
Unknown
Orbital elements
Apogee altitude
1,150.274 km
Perigee altitude
1,149.675 km
Semi-major axis
7,528.112 km
Eccentricity
0.00004
Inclination
50.0049°
RAAN
341.8489°
Arg. of periapsis
98.8258°
True anomaly
261.26139°
Mean anomaly
261.2659°
Eccentric anomaly
261.26365°
Mean motion
3.32288 °/min
Orbital period
108.34 mins
BSTAR
0.0001047
Loading maneuver chart data...
Computing Atmospheric mass density...
Loading historical data...
Loading historical data...
Loading historical data...
Loading historical data...
Loading historical data...
Loading historical data...
Loading historical data...

Documentation

Showing up to 5 results
|